Year,Month,Day,Hour,Minute,Value (Times are PST for temperature in C)
2013,07,18,09,33,18.40
2013,07,18,09,34,18.40
2013,07,18,09,35,18.40
2013,07,18,09,36,18.40
2013,07,18,09,37,18.50
2013,07,18,09,38,18.60
2013,07,18,09,39,18.70
2013,07,18,09,40,18.70
2013,07,18,09,41,18.70
2013,07,18,09,42,18.60
2013,07,18,09,43,18.60
2013,07,18,09,44,18.50
2013,07,18,09,45,18.30
2013,07,18,09,46,18.30
2013,07,18,09,47,18.30
2013,07,18,09,48,18.40
2013,07,18,09,49,18.50
2013,07,18,09,50,18.50
2013,07,18,09,51,18.50
2013,07,18,09,52,18.60
2013,07,18,09,53,18.70
2013,07,18,09,54,18.90
2013,07,18,09,55,19.00
2013,07,18,09,56,19.10
2013,07,18,09,57,19.10
2013,07,18,09,58,19.30
2013,07,18,09,59,19.30
2013,07,18,10,00,19.20
2013,07,18,10,01,19.10
2013,07,18,10,02,19.10
2013,07,18,10,03,19.00
2013,07,18,10,04,18.90
2013,07,18,10,05,18.90
2013,07,18,10,06,18.90
2013,07,18,10,07,19.00
2013,07,18,10,08,19.10
2013,07,18,10,09,19.10
2013,07,18,10,10,19.00
2013,07,18,10,11,18.90
2013,07,18,10,12,18.90
2013,07,18,10,13,18.90
2013,07,18,10,14,18.90
2013,07,18,10,15,18.90
2013,07,18,10,16,19.00
2013,07,18,10,17,19.10
2013,07,18,10,18,19.10
2013,07,18,10,19,19.10
2013,07,18,10,20,19.20
2013,07,18,10,21,19.30
2013,07,18,10,22,19.40
2013,07,18,10,23,19.40
2013,07,18,10,24,19.30
2013,07,18,10,25,19.30
2013,07,18,10,26,19.40
2013,07,18,10,27,19.30
2013,07,18,10,28,19.40
2013,07,18,10,29,19.50
2013,07,18,10,30,19.50
2013,07,18,10,31,19.40
2013,07,18,10,32,19.40
2013,07,18,10,33,19.50
2013,07,18,10,34,19.50
2013,07,18,10,35,19.60
2013,07,18,10,36,19.60
2013,07,18,10,37,19.50
2013,07,18,10,38,19.60
2013,07,18,10,39,19.60
2013,07,18,10,40,19.60
2013,07,18,10,41,19.70
2013,07,18,10,42,19.80
2013,07,18,10,43,19.80
2013,07,18,10,44,19.80
2013,07,18,10,45,19.90
2013,07,18,10,46,19.90
2013,07,18,10,47,19.80
2013,07,18,10,48,19.70
2013,07,18,10,49,19.60
2013,07,18,10,50,19.60
2013,07,18,10,51,19.60
2013,07,18,10,52,19.60
2013,07,18,10,53,19.60
2013,07,18,10,54,19.70
2013,07,18,10,55,19.70
2013,07,18,10,56,19.60
2013,07,18,10,57,19.80
2013,07,18,10,58,19.90
2013,07,18,10,59,20.00
2013,07,18,11,00,20.10
2013,07,18,11,01,20.20
2013,07,18,11,02,20.20
2013,07,18,11,03,20.30
2013,07,18,11,04,20.30
2013,07,18,11,05,20.20
2013,07,18,11,06,20.00
2013,07,18,11,07,19.90
2013,07,18,11,08,19.90
2013,07,18,11,09,19.80
2013,07,18,11,10,19.70
2013,07,18,11,11,19.70
2013,07,18,11,12,19.70
2013,07,18,11,13,19.80
2013,07,18,11,14,19.90
2013,07,18,11,15,19.90
2013,07,18,11,16,19.90
2013,07,18,11,17,19.80
2013,07,18,11,18,19.80
2013,07,18,11,19,19.90
2013,07,18,11,20,20.00
2013,07,18,11,21,19.90
2013,07,18,11,22,19.90
2013,07,18,11,23,20.00
2013,07,18,11,24,20.10
2013,07,18,11,25,20.20
2013,07,18,11,26,20.10
2013,07,18,11,27,20.20
2013,07,18,11,28,20.30
2013,07,18,11,29,20.40
2013,07,18,11,30,20.30
2013,07,18,11,31,20.30
2013,07,18,11,32,20.30
2013,07,18,11,33,20.30
2013,07,18,11,34,20.30
2013,07,18,11,35,20.40
2013,07,18,11,36,20.50
2013,07,18,11,37,20.60
2013,07,18,11,38,20.60
2013,07,18,11,39,20.70
2013,07,18,11,40,20.70
2013,07,18,11,41,20.60
2013,07,18,11,42,20.40
2013,07,18,11,43,20.30
2013,07,18,11,44,20.30
2013,07,18,11,45,20.30
2013,07,18,11,46,20.40
2013,07,18,11,47,20.30
2013,07,18,11,48,20.20
2013,07,18,11,49,20.10
2013,07,18,11,50,20.10
2013,07,18,11,51,20.10
2013,07,18,11,52,20.10
2013,07,18,11,53,20.20
2013,07,18,11,54,20.20
2013,07,18,11,55,20.30
2013,07,18,11,56,20.30
2013,07,18,11,57,20.40
2013,07,18,11,58,20.40
2013,07,18,11,59,20.30
2013,07,18,12,00,20.30
2013,07,18,12,01,20.50
2013,07,18,12,02,20.60
2013,07,18,12,03,20.70
2013,07,18,12,04,20.70
2013,07,18,12,05,20.60
2013,07,18,12,06,20.70
2013,07,18,12,07,20.80
2013,07,18,12,08,21.00
2013,07,18,12,09,21.20
2013,07,18,12,10,21.30
2013,07,18,12,11,21.30
2013,07,18,12,12,21.30
2013,07,18,12,13,21.10
2013,07,18,12,14,21.00
2013,07,18,12,15,20.70
2013,07,18,12,16,20.50
2013,07,18,12,17,20.40
2013,07,18,12,18,20.50
2013,07,18,12,19,20.50
2013,07,18,12,20,20.40
2013,07,18,12,21,20.50
2013,07,18,12,22,20.50
2013,07,18,12,23,20.60
2013,07,18,12,24,20.60
2013,07,18,12,25,20.70
2013,07,18,12,26,20.70
2013,07,18,12,27,20.70
2013,07,18,12,28,20.80
2013,07,18,12,29,20.80
2013,07,18,12,30,20.70
2013,07,18,12,31,20.70
2013,07,18,12,32,20.80
2013,07,18,12,33,20.90
2013,07,18,12,34,21.10
2013,07,18,12,35,21.20
2013,07,18,12,36,21.20
2013,07,18,12,37,21.10
2013,07,18,12,38,21.00
2013,07,18,12,39,20.80
2013,07,18,12,40,20.70
2013,07,18,12,41,20.70
2013,07,18,12,42,20.70
2013,07,18,12,43,20.70
2013,07,18,12,44,20.70
2013,07,18,12,45,20.80
2013,07,18,12,46,21.00
2013,07,18,12,47,21.10
2013,07,18,12,48,21.30
2013,07,18,12,49,21.30
2013,07,18,12,50,21.30
2013,07,18,12,51,21.40
2013,07,18,12,52,21.40
2013,07,18,12,53,21.40
2013,07,18,12,54,21.40
2013,07,18,12,55,21.30
2013,07,18,12,56,21.30
2013,07,18,12,57,21.30
2013,07,18,12,58,21.30
2013,07,18,12,59,21.20
2013,07,18,13,00,21.20
2013,07,18,13,01,21.30
2013,07,18,13,02,21.10
2013,07,18,13,03,20.90
2013,07,18,13,04,20.80
2013,07,18,13,05,20.70
2013,07,18,13,06,20.60
2013,07,18,13,07,20.50
2013,07,18,13,08,20.60
2013,07,18,13,09,20.60
2013,07,18,13,10,20.60
2013,07,18,13,11,20.70
2013,07,18,13,12,20.80
2013,07,18,13,13,20.80
2013,07,18,13,14,20.80
2013,07,18,13,15,20.90
2013,07,18,13,16,20.80
2013,07,18,13,17,20.80
2013,07,18,13,18,20.90
2013,07,18,13,19,21.00
2013,07,18,13,20,21.10
2013,07,18,13,21,21.20
2013,07,18,13,22,21.30
2013,07,18,13,23,21.50
2013,07,18,13,24,21.60
2013,07,18,13,25,21.60
2013,07,18,13,26,21.50
2013,07,18,13,27,21.40
2013,07,18,13,28,21.30
2013,07,18,13,29,21.30
2013,07,18,13,30,21.40
2013,07,18,13,31,21.50
2013,07,18,13,32,21.60
2013,07,18,13,33,21.70
2013,07,18,13,34,21.70
2013,07,18,13,35,21.70
2013,07,18,13,36,21.60
2013,07,18,13,37,21.60
2013,07,18,13,38,21.50
2013,07,18,13,39,21.30
2013,07,18,13,40,21.30
2013,07,18,13,41,21.40
2013,07,18,13,42,21.50
2013,07,18,13,43,21.60
2013,07,18,13,44,21.70
2013,07,18,13,45,21.60
2013,07,18,13,46,21.60
2013,07,18,13,47,21.60
2013,07,18,13,48,21.70
2013,07,18,13,49,21.80
2013,07,18,13,50,21.90
2013,07,18,13,51,22.00
2013,07,18,13,52,22.00
2013,07,18,13,53,22.20
2013,07,18,13,54,22.40
2013,07,18,13,55,22.50
2013,07,18,13,56,22.60
2013,07,18,13,57,22.70
2013,07,18,13,58,22.70
2013,07,18,13,59,22.70
2013,07,18,14,00,22.70
2013,07,18,14,01,22.60
2013,07,18,14,02,22.40
2013,07,18,14,03,22.30
2013,07,18,14,04,22.20
2013,07,18,14,05,22.00
2013,07,18,14,06,21.90
2013,07,18,14,07,21.90
2013,07,18,14,08,21.90
2013,07,18,14,09,21.90
2013,07,18,14,10,21.80
2013,07,18,14,11,21.90
2013,07,18,14,12,21.90
2013,07,18,14,13,22.00
2013,07,18,14,14,22.10
2013,07,18,14,15,22.20
2013,07,18,14,16,22.30
2013,07,18,14,17,22.30
2013,07,18,14,18,22.30
2013,07,18,14,19,22.30
2013,07,18,14,20,22.40
2013,07,18,14,21,22.50
2013,07,18,14,22,22.60
2013,07,18,14,23,22.70
2013,07,18,14,24,22.60
2013,07,18,14,25,22.40
2013,07,18,14,26,22.30
2013,07,18,14,27,22.30
2013,07,18,14,28,22.40
2013,07,18,14,29,22.60
2013,07,18,14,30,22.60
2013,07,18,14,31,22.60
2013,07,18,14,32,22.70
2013,07,18,14,33,22.70
2013,07,18,14,34,22.60
2013,07,18,14,35,22.60
2013,07,18,14,36,22.70
2013,07,18,14,37,22.60
2013,07,18,14,38,22.60
2013,07,18,14,39,22.50
2013,07,18,14,40,22.70
2013,07,18,14,41,22.80
2013,07,18,14,42,22.90
2013,07,18,14,43,22.90
2013,07,18,14,44,22.90
2013,07,18,14,45,22.80
2013,07,18,14,46,22.70
2013,07,18,14,47,22.50
2013,07,18,14,48,22.40
2013,07,18,14,49,22.30
2013,07,18,14,50,22.30
2013,07,18,14,51,22.20
2013,07,18,14,52,22.30
2013,07,18,14,53,22.40
2013,07,18,14,54,22.50
2013,07,18,14,55,22.60
2013,07,18,14,56,22.80
2013,07,18,14,57,22.90
2013,07,18,14,58,23.00
2013,07,18,14,59,23.10
2013,07,18,15,00,23.30
2013,07,18,15,01,23.30
2013,07,18,15,02,23.30
2013,07,18,15,03,23.30
2013,07,18,15,04,23.40
2013,07,18,15,05,23.30
2013,07,18,15,06,23.20
2013,07,18,15,07,23.00
2013,07,18,15,08,22.90
2013,07,18,15,09,22.90
2013,07,18,15,10,22.80
2013,07,18,15,11,22.90
2013,07,18,15,12,23.00
2013,07,18,15,13,23.10
2013,07,18,15,14,23.10
2013,07,18,15,15,23.00
2013,07,18,15,16,22.90
2013,07,18,15,17,22.90
2013,07,18,15,18,22.90
2013,07,18,15,19,23.10
2013,07,18,15,20,23.10
2013,07,18,15,21,23.30
2013,07,18,15,22,23.30
2013,07,18,15,23,23.40
2013,07,18,15,24,23.50
2013,07,18,15,25,23.40
2013,07,18,15,26,23.30
2013,07,18,15,27,23.30
2013,07,18,15,28,23.20
2013,07,18,15,29,23.20
2013,07,18,15,30,23.20
2013,07,18,15,31,23.20
2013,07,18,15,32,23.20
2013,07,18,15,33,23.10
2013,07,18,15,34,23.20
2013,07,18,15,35,23.30
2013,07,18,15,36,23.40
2013,07,18,15,37,23.60
2013,07,18,15,38,23.70
2013,07,18,15,39,23.80
2013,07,18,15,40,23.90
2013,07,18,15,41,23.90
2013,07,18,15,42,23.90
2013,07,18,15,43,23.90
2013,07,18,15,44,23.90
2013,07,18,15,45,23.90
2013,07,18,15,46,23.80
2013,07,18,15,47,23.80
2013,07,18,15,48,23.80
2013,07,18,15,49,23.90
2013,07,18,15,50,23.90
2013,07,18,15,51,23.90
2013,07,18,15,52,23.70
2013,07,18,15,53,23.70
2013,07,18,15,54,23.70
2013,07,18,15,55,23.80
2013,07,18,15,56,23.80
2013,07,18,15,57,23.80
2013,07,18,15,58,23.70
2013,07,18,15,59,23.60
2013,07,18,16,00,23.50
2013,07,18,16,01,23.40
2013,07,18,16,02,23.30
2013,07,18,16,03,23.20
2013,07,18,16,04,23.20
2013,07,18,16,05,23.10
2013,07,18,16,06,23.10
2013,07,18,16,07,23.10
2013,07,18,16,08,23.10
2013,07,18,16,09,23.00
2013,07,18,16,10,22.90
2013,07,18,16,11,22.80
2013,07,18,16,12,22.70
2013,07,18,16,13,22.80
2013,07,18,16,14,22.90
2013,07,18,16,15,22.90
2013,07,18,16,16,23.00
2013,07,18,16,17,23.10
2013,07,18,16,18,23.20
2013,07,18,16,19,23.30
2013,07,18,16,20,23.20
2013,07,18,16,21,23.20
2013,07,18,16,22,23.20
2013,07,18,16,23,23.10
2013,07,18,16,24,23.10
2013,07,18,16,25,23.10
2013,07,18,16,26,23.10
2013,07,18,16,27,23.10
2013,07,18,16,28,23.20
2013,07,18,16,29,23.10
2013,07,18,16,30,23.20
2013,07,18,16,31,23.20
2013,07,18,16,32,23.10
2013,07,18,16,33,23.00
2013,07,18,16,34,22.90
2013,07,18,16,35,22.80
2013,07,18,16,36,22.70
2013,07,18,16,37,22.70
2013,07,18,16,38,22.70
2013,07,18,16,39,22.70
2013,07,18,16,40,22.90
2013,07,18,16,41,22.90
2013,07,18,16,42,23.00
2013,07,18,16,43,23.10
2013,07,18,16,44,23.10
2013,07,18,16,45,23.20
2013,07,18,16,46,23.20
2013,07,18,16,47,23.10
2013,07,18,16,48,22.90
2013,07,18,16,49,22.90
2013,07,18,16,50,22.90
2013,07,18,16,51,22.90
2013,07,18,16,52,23.00
2013,07,18,16,53,23.10
2013,07,18,16,54,23.20
2013,07,18,16,55,23.30
2013,07,18,16,56,23.30
2013,07,18,16,57,23.30
2013,07,18,16,58,23.30
2013,07,18,16,59,23.30
2013,07,18,17,00,23.20
2013,07,18,17,01,23.20
2013,07,18,17,02,23.20
2013,07,18,17,03,23.20
2013,07,18,17,04,23.10
2013,07,18,17,05,23.00
2013,07,18,17,06,22.90
2013,07,18,17,07,22.90
2013,07,18,17,08,22.90
2013,07,18,17,09,22.90
2013,07,18,17,10,22.90
2013,07,18,17,11,22.80
2013,07,18,17,12,22.70
2013,07,18,17,13,22.70
2013,07,18,17,14,22.70
2013,07,18,17,15,22.80
2013,07,18,17,16,22.90
2013,07,18,17,17,22.90
2013,07,18,17,18,22.80
2013,07,18,17,19,22.90
2013,07,18,17,20,22.90
2013,07,18,17,21,22.90
2013,07,18,17,22,22.90
2013,07,18,17,23,22.90
2013,07,18,17,24,22.90
2013,07,18,17,25,23.10
2013,07,18,17,26,23.10
2013,07,18,17,27,23.10
2013,07,18,17,28,23.10
2013,07,18,17,29,23.10
2013,07,18,17,30,22.90
2013,07,18,17,31,22.90
2013,07,18,17,32,22.80
2013,07,18,17,33,22.80
2013,07,18,17,34,22.70
2013,07,18,17,35,22.70
2013,07,18,17,36,22.60
2013,07,18,17,37,22.50
2013,07,18,17,38,22.60
2013,07,18,17,39,22.60
2013,07,18,17,40,22.60
2013,07,18,17,41,22.60
2013,07,18,17,42,22.50
2013,07,18,17,43,22.40
2013,07,18,17,44,22.40
2013,07,18,17,45,22.30
2013,07,18,17,46,22.30
2013,07,18,17,47,22.40
2013,07,18,17,48,22.40
2013,07,18,17,49,22.40
2013,07,18,17,50,22.40
2013,07,18,17,51,22.30
2013,07,18,17,52,22.20
2013,07,18,17,53,22.10
2013,07,18,17,54,22.10
2013,07,18,17,55,22.10
2013,07,18,17,56,22.20
2013,07,18,17,57,22.30
2013,07,18,17,58,22.30
2013,07,18,17,59,22.40
2013,07,18,18,00,22.40
2013,07,18,18,01,22.40
2013,07,18,18,02,22.50
2013,07,18,18,03,22.50
2013,07,18,18,04,22.50
2013,07,18,18,05,22.50
2013,07,18,18,06,22.50
2013,07,18,18,07,22.50
2013,07,18,18,08,22.50
2013,07,18,18,09,22.50
2013,07,18,18,10,22.50
2013,07,18,18,11,22.40
2013,07,18,18,12,22.30
2013,07,18,18,13,22.20
2013,07,18,18,14,22.10
2013,07,18,18,15,22.00
2013,07,18,18,16,22.00
2013,07,18,18,17,22.10
2013,07,18,18,18,22.20
2013,07,18,18,19,22.20
2013,07,18,18,20,22.30
2013,07,18,18,21,22.30
2013,07,18,18,22,22.20
2013,07,18,18,23,22.20
2013,07,18,18,24,22.20
2013,07,18,18,25,22.20
2013,07,18,18,26,22.20
2013,07,18,18,27,22.20
2013,07,18,18,28,22.00
2013,07,18,18,29,22.00
2013,07,18,18,30,21.90
2013,07,18,18,31,21.80
2013,07,18,18,32,21.80
2013,07,18,18,33,21.80
2013,07,18,18,34,21.80
2013,07,18,18,35,21.80
2013,07,18,18,36,21.80
2013,07,18,18,37,21.80
2013,07,18,18,38,21.80
2013,07,18,18,39,21.70
2013,07,18,18,40,21.70
2013,07,18,18,41,21.70
2013,07,18,18,42,21.80
2013,07,18,18,43,21.80
2013,07,18,18,44,21.80
2013,07,18,18,45,21.80
2013,07,18,18,46,21.80
2013,07,18,18,47,21.70
2013,07,18,18,48,21.70
2013,07,18,18,49,21.80
2013,07,18,18,50,21.90
2013,07,18,18,51,21.90
2013,07,18,18,52,22.00
2013,07,18,18,53,22.00
2013,07,18,18,54,21.90
2013,07,18,18,55,21.90
2013,07,18,18,56,21.80
2013,07,18,18,57,21.80
2013,07,18,18,58,21.70
2013,07,18,18,59,21.70
2013,07,18,19,00,21.60
2013,07,18,19,01,21.60
2013,07,18,19,02,21.60
2013,07,18,19,03,21.60
2013,07,18,19,04,21.60
2013,07,18,19,05,21.60
2013,07,18,19,06,21.60
2013,07,18,19,07,21.60
2013,07,18,19,08,21.60
2013,07,18,19,09,21.50
2013,07,18,19,10,21.40
2013,07,18,19,11,21.40
2013,07,18,19,12,21.30
2013,07,18,19,13,21.30
2013,07,18,19,14,21.30
2013,07,18,19,15,21.30
2013,07,18,19,16,21.30
2013,07,18,19,17,21.30
2013,07,18,19,18,21.30
2013,07,18,19,19,21.30
2013,07,18,19,20,21.30
2013,07,18,19,21,21.30
2013,07,18,19,22,21.30
